SAS031 ENVA-ENBO

Flight info

Callsign SAS031
Flight time 0h 50m
Altitude 37000
Route NIGEX DCT LAKIM DCT ODNOS
Aircraft B738/M-SDFGHIRWXYZ/LB1

Departure

Time 2026-04-26 10:38
Airport Trondheim Airport, Værnes (ENVA)

Arrival

Time 2026-04-26 11:29
Airport Bodø Airport (ENBO)
Time Latitude Longitude Altitude Speed Heading
2026-04-26 10:07 63.45500 10.91825 37 ft 0 kts 180°
2026-04-26 10:30 63.45502 10.91825 38 ft 3 kts 180°
2026-04-26 10:30 63.45514 10.91826 38 ft 3 kts 180°
2026-04-26 10:31 63.45533 10.91826 38 ft 3 kts 180°
2026-04-26 10:31 63.45540 10.91826 38 ft 2 kts 180°
2026-04-26 10:31 63.45548 10.91826 38 ft 0 kts 180°
2026-04-26 10:32 63.45544 10.91833 38 ft 1 kts 146°
2026-04-26 10:32 63.45543 10.91848 38 ft 1 kts 97°
2026-04-26 10:33 63.45549 10.91875 38 ft 5 kts 69°
2026-04-26 10:33 63.45556 10.91976 38 ft 7 kts 89°
2026-04-26 10:33 63.45555 10.92108 38 ft 10 kts 90°
2026-04-26 10:33 63.45555 10.92274 38 ft 11 kts 91°
2026-04-26 10:34 63.45570 10.92395 41 ft 6 kts 34°
2026-04-26 10:34 63.45593 10.92490 41 ft 9 kts 84°
2026-04-26 10:34 63.45595 10.92626 43 ft 8 kts 92°
2026-04-26 10:34 63.45594 10.92735 44 ft 10 kts 91°
2026-04-26 10:35 63.45594 10.92983 48 ft 17 kts 90°
2026-04-26 10:35 63.45593 10.93228 48 ft 14 kts 91°
2026-04-26 10:35 63.45592 10.93425 54 ft 11 kts 90°
2026-04-26 10:35 63.45593 10.93578 56 ft 9 kts 90°
2026-04-26 10:36 63.45593 10.93725 56 ft 12 kts 88°
2026-04-26 10:36 63.45643 10.93941 54 ft 17 kts 44°
2026-04-26 10:36 63.45732 10.94081 53 ft 14 kts 353°
2026-04-26 10:36 63.45757 10.93967 58 ft 0 kts 270°
2026-04-26 10:37 63.45757 10.93966 58 ft 2 kts 270°
2026-04-26 10:38 63.45759 10.93639 55 ft 49 kts 271°
2026-04-26 10:38 63.45762 10.92402 41 ft 109 kts 270°
2026-04-26 10:38 63.45751 10.90352 143 ft 147 kts 272°
2026-04-26 10:38 63.45725 10.88022 674 ft 152 kts 277°
2026-04-26 10:39 63.45831 10.85615 1291 ft 161 kts 276°
2026-04-26 10:39 63.45843 10.82993 1848 ft 176 kts 273°
2026-04-26 10:39 63.45816 10.80135 2287 ft 192 kts 272°
2026-04-26 10:39 63.45794 10.77028 2729 ft 207 kts 274°
2026-04-26 10:40 63.45783 10.73702 3315 ft 217 kts 274°
2026-04-26 10:40 63.45912 10.70327 4074 ft 226 kts 290°
2026-04-26 10:40 63.46855 10.67617 4856 ft 231 kts 327°
2026-04-26 10:40 63.48457 10.66820 5720 ft 245 kts
2026-04-26 10:41 63.50091 10.68038 6567 ft 257 kts 19°
2026-04-26 10:41 63.51715 10.69821 7408 ft 262 kts 21°
2026-04-26 10:41 63.53357 10.71646 8277 ft 265 kts 20°
2026-04-26 10:41 63.55032 10.73387 9197 ft 266 kts 19°
2026-04-26 10:42 63.56737 10.75070 10130 ft 268 kts 18°
2026-04-26 10:42 63.58484 10.76758 10744 ft 282 kts 18°
2026-04-26 10:42 63.60343 10.78563 11203 ft 300 kts 19°
2026-04-26 10:42 63.62302 10.80499 11703 ft 313 kts 19°
2026-04-26 10:43 63.64313 10.82519 12546 ft 319 kts 19°
2026-04-26 10:43 63.66345 10.84569 13477 ft 321 kts 18°
2026-04-26 10:43 63.68390 10.86623 14382 ft 323 kts 17°
2026-04-26 10:43 63.70452 10.88685 15200 ft 327 kts 17°
2026-04-26 10:44 63.72541 10.90769 16090 ft 329 kts 17°
2026-04-26 10:44 63.74641 10.92873 16893 ft 332 kts 17°
2026-04-26 10:44 63.76762 10.95007 17724 ft 336 kts 17°
2026-04-26 10:44 63.78912 10.97174 18550 ft 340 kts 17°
2026-04-26 10:45 63.81079 10.99360 19226 ft 343 kts 17°
2026-04-26 10:45 63.83273 11.01577 19888 ft 347 kts 17°
2026-04-26 10:45 63.85486 11.03817 20581 ft 350 kts 17°
2026-04-26 10:45 63.87725 11.06089 21245 ft 354 kts 17°
2026-04-26 10:46 63.89985 11.08385 21913 ft 357 kts 17°
2026-04-26 10:46 63.92267 11.10706 22567 ft 361 kts 17°
2026-04-26 10:46 63.94571 11.13052 23257 ft 364 kts 17°
2026-04-26 10:46 63.96894 11.15426 23873 ft 367 kts 17°
2026-04-26 10:47 63.99233 11.17821 24381 ft 370 kts 17°
2026-04-26 10:47 64.01601 11.20249 24859 ft 374 kts 17°
2026-04-26 10:47 64.03984 11.22696 25351 ft 377 kts 17°
2026-04-26 10:47 64.06383 11.25166 25833 ft 380 kts 17°
2026-04-26 10:48 64.08802 11.27661 26298 ft 383 kts 17°
2026-04-26 10:48 64.11237 11.30177 26742 ft 386 kts 17°
2026-04-26 10:48 64.13693 11.32717 27179 ft 388 kts 17°
2026-04-26 10:48 64.16162 11.35277 27612 ft 391 kts 17°
2026-04-26 10:49 64.18655 11.37868 28025 ft 394 kts 17°
2026-04-26 10:49 64.21162 11.40479 28423 ft 397 kts 17°
2026-04-26 10:49 64.23680 11.43106 28823 ft 399 kts 17°
2026-04-26 10:49 64.26216 11.45758 29197 ft 402 kts 17°
2026-04-26 10:50 64.28769 11.48430 29557 ft 404 kts 17°
2026-04-26 10:50 64.30473 11.50217 29805 ft 406 kts 17°
2026-04-26 10:50 64.33929 11.53851 30272 ft 409 kts 17°
2026-04-26 10:50 64.36525 11.56590 30557 ft 412 kts 17°
2026-04-26 10:51 64.39135 11.59347 30834 ft 414 kts 17°
2026-04-26 10:51 64.44391 11.64921 31525 ft 414 kts 17°
2026-04-26 10:51 64.47011 11.67708 31911 ft 413 kts 17°
2026-04-26 10:52 64.49625 11.70492 32292 ft 413 kts 17°
2026-04-26 10:52 64.52231 11.73275 32719 ft 412 kts 17°
2026-04-26 10:52 64.54832 11.76058 33131 ft 410 kts 17°
2026-04-26 10:52 64.57425 11.78838 33540 ft 409 kts 17°
2026-04-26 10:53 64.60012 11.81615 33929 ft 409 kts 17°
2026-04-26 10:53 64.62593 11.84391 34282 ft 408 kts 17°
2026-04-26 10:53 64.65170 11.87170 34565 ft 408 kts 17°
2026-04-26 10:54 64.70318 11.92740 35043 ft 410 kts 17°
2026-04-26 10:54 64.72914 11.95558 35307 ft 411 kts 18°
2026-04-26 10:54 64.75514 11.98386 35561 ft 412 kts 18°
2026-04-26 10:54 64.78115 12.01223 35792 ft 413 kts 18°
2026-04-26 10:55 64.80725 12.04073 36036 ft 414 kts 18°
2026-04-26 10:55 64.83346 12.06941 36278 ft 415 kts 18°
2026-04-26 10:55 64.85965 12.09815 36510 ft 416 kts 18°
2026-04-26 10:55 64.87708 12.11732 36674 ft 417 kts 18°
2026-04-26 10:56 64.91227 12.15609 36994 ft 418 kts 19°
2026-04-26 10:56 64.93870 12.18528 37155 ft 420 kts 19°
2026-04-26 10:56 64.99211 12.24440 37178 ft 426 kts 19°
2026-04-26 10:57 65.04574 12.30417 37167 ft 426 kts 19°
2026-04-26 10:57 65.09904 12.36384 37178 ft 421 kts 19°
2026-04-26 10:58 65.15215 12.42340 37176 ft 421 kts 19°
2026-04-26 10:58 65.20484 12.48292 37174 ft 423 kts 20°
2026-04-26 10:59 65.22987 12.52105 37225 ft 433 kts 33°
2026-04-26 10:59 65.25250 12.56890 37220 ft 435 kts 32°
2026-04-26 10:59 65.27718 12.60909 37197 ft 424 kts 21°
2026-04-26 10:59 65.30389 12.63616 37186 ft 413 kts 13°
2026-04-26 11:00 65.35795 12.68212 37167 ft 415 kts 17°
2026-04-26 11:00 65.41058 12.74423 37206 ft 421 kts 21°
2026-04-26 11:01 65.46333 12.80606 37183 ft 421 kts 18°
2026-04-26 11:01 65.51646 12.86387 37163 ft 422 kts 18°
2026-04-26 11:02 65.56975 12.92441 37155 ft 423 kts 19°
2026-04-26 11:02 65.59625 12.95497 37031 ft 419 kts 19°
2026-04-26 11:02 65.62265 12.98520 36446 ft 420 kts 18°
2026-04-26 11:03 65.64896 13.01513 36005 ft 417 kts 18°
2026-04-26 11:03 65.67518 13.04497 35558 ft 415 kts 18°
2026-04-26 11:03 65.69252 13.06481 35275 ft 413 kts 17°
2026-04-26 11:03 65.71841 13.09456 34809 ft 411 kts 17°
2026-04-26 11:04 65.74401 13.12417 34265 ft 403 kts 17°
2026-04-26 11:04 65.76915 13.15330 33625 ft 397 kts 16°
2026-04-26 11:04 65.79384 13.18187 33004 ft 390 kts 16°
2026-04-26 11:04 65.81815 13.21000 32398 ft 383 kts 15°
2026-04-26 11:05 65.84215 13.23777 31812 ft 385 kts 15°
2026-04-26 11:05 65.86679 13.26606 31228 ft 394 kts 15°
2026-04-26 11:05 65.89143 13.29474 30672 ft 392 kts 15°
2026-04-26 11:05 65.91600 13.32370 30117 ft 389 kts 15°
2026-04-26 11:06 65.94030 13.35238 29460 ft 386 kts 15°
2026-04-26 11:06 65.96439 13.38071 29049 ft 379 kts 15°
2026-04-26 11:06 65.98796 13.40844 28708 ft 371 kts 15°
2026-04-26 11:06 66.01121 13.43577 28258 ft 368 kts 14°
2026-04-26 11:07 66.03424 13.46286 27719 ft 365 kts 15°
2026-04-26 11:07 66.05711 13.48982 27256 ft 362 kts 15°
2026-04-26 11:07 66.07979 13.51671 26791 ft 360 kts 15°
2026-04-26 11:07 66.10225 13.54343 26343 ft 357 kts 15°
2026-04-26 11:08 66.12456 13.57002 25897 ft 355 kts 15°
2026-04-26 11:08 66.14674 13.59650 25476 ft 353 kts 15°
2026-04-26 11:08 66.16881 13.62285 25025 ft 351 kts 15°
2026-04-26 11:08 66.19069 13.64901 24586 ft 348 kts 16°
2026-04-26 11:09 66.21246 13.67514 24157 ft 346 kts 16°
2026-04-26 11:09 66.23400 13.70171 23764 ft 345 kts 17°
2026-04-26 11:09 66.25538 13.72883 23286 ft 344 kts 17°
2026-04-26 11:09 66.27658 13.75600 22797 ft 342 kts 18°
2026-04-26 11:10 66.29776 13.78303 22334 ft 340 kts 18°
2026-04-26 11:10 66.31884 13.80972 21829 ft 339 kts 18°
2026-04-26 11:10 66.33957 13.83595 21339 ft 337 kts 18°
2026-04-26 11:10 66.36066 13.86284 20837 ft 335 kts 19°
2026-04-26 11:11 66.38106 13.88881 20399 ft 332 kts 19°
2026-04-26 11:11 66.40133 13.91475 19957 ft 323 kts 19°
2026-04-26 11:11 66.42109 13.94015 19506 ft 315 kts 19°
2026-04-26 11:11 66.44061 13.96506 19146 ft 314 kts 19°
2026-04-26 11:12 66.46034 13.99022 18781 ft 315 kts 19°
2026-04-26 11:12 66.47956 14.01489 18430 ft 314 kts 19°
2026-04-26 11:12 66.49893 14.03990 18047 ft 312 kts 20°
2026-04-26 11:12 66.51823 14.06488 17679 ft 311 kts 20°
2026-04-26 11:13 66.53746 14.08978 17207 ft 311 kts 20°
2026-04-26 11:13 66.55684 14.11488 16822 ft 308 kts 20°
2026-04-26 11:13 66.57567 14.13930 16438 ft 308 kts 21°
2026-04-26 11:13 66.59471 14.16402 16090 ft 308 kts 22°
2026-04-26 11:14 66.61384 14.18894 15726 ft 309 kts 22°
2026-04-26 11:14 66.63295 14.21389 15355 ft 310 kts 22°
2026-04-26 11:14 66.65208 14.23888 15018 ft 310 kts 23°
2026-04-26 11:14 66.67121 14.26389 14680 ft 309 kts 23°
2026-04-26 11:15 66.69028 14.28892 14337 ft 308 kts 24°
2026-04-26 11:15 66.70929 14.31392 13969 ft 308 kts 24°
2026-04-26 11:15 66.72826 14.33897 13593 ft 307 kts 25°
2026-04-26 11:15 66.74711 14.36386 13161 ft 305 kts 24°
2026-04-26 11:16 66.76586 14.38856 12700 ft 302 kts 24°
2026-04-26 11:16 66.78436 14.41297 12289 ft 298 kts 24°
2026-04-26 11:16 66.80277 14.43730 11936 ft 297 kts 24°
2026-04-26 11:16 66.82099 14.46151 11549 ft 295 kts 24°
2026-04-26 11:17 66.83920 14.48572 11164 ft 295 kts 24°
2026-04-26 11:17 66.85724 14.50981 10778 ft 290 kts 24°
2026-04-26 11:17 66.87497 14.53353 10408 ft 285 kts 24°
2026-04-26 11:17 66.89243 14.55688 10066 ft 281 kts 24°
2026-04-26 11:18 66.90964 14.57981 9671 ft 277 kts 24°
2026-04-26 11:18 66.92673 14.60245 9252 ft 275 kts 24°
2026-04-26 11:18 66.94338 14.62479 9135 ft 263 kts 24°
2026-04-26 11:18 66.95927 14.64629 8953 ft 255 kts 24°
2026-04-26 11:19 66.97491 14.66736 8648 ft 254 kts 24°
2026-04-26 11:19 66.99046 14.68829 8362 ft 252 kts 24°
2026-04-26 11:19 67.00592 14.70916 8013 ft 251 kts 24°
2026-04-26 11:19 67.02131 14.72998 7686 ft 249 kts 24°
2026-04-26 11:20 67.03663 14.75075 7352 ft 248 kts 24°
2026-04-26 11:20 67.04670 14.76445 7124 ft 248 kts 24°
2026-04-26 11:20 67.06684 14.79186 7004 ft 242 kts 24°
2026-04-26 11:20 67.08157 14.81197 7000 ft 238 kts 24°
2026-04-26 11:21 67.09617 14.83183 7030 ft 237 kts 24°
2026-04-26 11:21 67.11082 14.85176 6974 ft 239 kts 24°
2026-04-26 11:21 67.12539 14.87169 6959 ft 236 kts 24°
2026-04-26 11:21 67.14021 14.89200 6458 ft 245 kts 24°
2026-04-26 11:22 67.15534 14.91277 5984 ft 246 kts 24°
2026-04-26 11:22 67.17029 14.93329 5565 ft 240 kts 23°
2026-04-26 11:22 67.18565 14.94688 5263 ft 228 kts
2026-04-26 11:22 67.20117 14.94620 4952 ft 220 kts 353°
2026-04-26 11:23 67.21623 14.94371 4622 ft 214 kts 354°
2026-04-26 11:23 67.23109 14.94224 4373 ft 214 kts 355°
2026-04-26 11:23 67.24596 14.93861 4069 ft 216 kts 342°
2026-04-26 11:23 67.25871 14.92185 3936 ft 197 kts 320°
2026-04-26 11:24 67.26725 14.89536 3841 ft 192 kts 299°
2026-04-26 11:24 67.27119 14.86249 3717 ft 193 kts 278°
2026-04-26 11:24 67.27107 14.82778 3613 ft 192 kts 274°
2026-04-26 11:24 67.27178 14.79345 3419 ft 192 kts 276°
2026-04-26 11:25 67.27223 14.75890 3189 ft 191 kts 274°
2026-04-26 11:25 67.27240 14.72487 3033 ft 185 kts 275°
2026-04-26 11:25 67.27250 14.69167 2790 ft 186 kts 274°
2026-04-26 11:25 67.27255 14.65893 2506 ft 175 kts 274°
2026-04-26 11:26 67.27259 14.62873 2218 ft 160 kts 274°
2026-04-26 11:26 67.27265 14.60043 1957 ft 155 kts 274°
2026-04-26 11:26 67.27270 14.57329 1706 ft 149 kts 273°
2026-04-26 11:26 67.27273 14.54745 1464 ft 142 kts 274°
2026-04-26 11:27 67.27275 14.52237 1223 ft 137 kts 274°
2026-04-26 11:27 67.27276 14.49793 990 ft 134 kts 276°
2026-04-26 11:27 67.27280 14.47418 787 ft 132 kts 275°
2026-04-26 11:27 67.27281 14.44997 551 ft 132 kts 274°
2026-04-26 11:28 67.27269 14.42625 295 ft 133 kts 272°
2026-04-26 11:28 67.27240 14.40228 144 ft 136 kts 261°
2026-04-26 11:28 67.27019 14.37842 54 ft 132 kts 264°
2026-04-26 11:28 67.26869 14.35850 35 ft 77 kts 258°
2026-04-26 11:29 67.26807 14.35123 34 ft 43 kts 257°
2026-04-26 11:29 67.26740 14.34355 30 ft 41 kts 258°
2026-04-26 11:29 67.26688 14.33727 30 ft 23 kts 257°
2026-04-26 11:29 67.26723 14.33413 28 ft 19 kts 337°
2026-04-26 11:30 67.26814 14.33548 30 ft 16 kts 66°
2026-04-26 11:30 67.26830 14.33740 26 ft 17 kts 80°
2026-04-26 11:30 67.26855 14.34072 32 ft 12 kts 77°
2026-04-26 11:30 67.26873 14.34282 31 ft 14 kts 78°
2026-04-26 11:31 67.26896 14.34560 35 ft 17 kts 77°
2026-04-26 11:31 67.26924 14.34902 35 ft 22 kts 78°
2026-04-26 11:31 67.26956 14.35285 36 ft 21 kts 78°
2026-04-26 11:31 67.26985 14.35637 37 ft 19 kts 78°
2026-04-26 11:32 67.27012 14.35962 39 ft 18 kts 81°
2026-04-26 11:32 67.27032 14.36248 40 ft 15 kts 79°
2026-04-26 11:32 67.27050 14.36511 43 ft 14 kts 79°
2026-04-26 11:32 67.27066 14.36744 44 ft 12 kts 79°
2026-04-26 11:33 67.27092 14.36922 45 ft 10 kts 42°
2026-04-26 11:33 67.27153 14.37010 44 ft 9 kts
2026-04-26 11:33 67.27188 14.36931 44 ft 4 kts 299°
2026-04-26 11:33 67.27188 14.36929 46 ft 0 kts 298°